STARLINK-11667, 63550

Orbit data source: Space-Track

STARLINK-11667, 63550 is a payload satellite owned by SpaceX/Seattle (US) in LEO that was launched on Sun, 13 Apr 2025 UTC via an FALCON 9 launch vehicle from the Air Force Eastern Test Range (AFETR). Payload-class satellites include a variety of spacecraft equipped with specific instruments for various scientific and technological missions. These include communications satellites like Starlink; space stations such as the ISS; scientific satellites like the Hubble; Earth observation satellites from companies like Planet Labs, Umbra, and HawkEye 360; GPS; miniature CubeSats for education and research; and military/defense satellites.

Loading next visibility...
Identifier
63550, 2025-075C
Orbit
LEO
Country
Flag of USUS
Related business
Manufacturer
SpaceX/Seattle
Mission
Operational Commercial Communications
Bus & Motor
STARLINK V2MD, Unknown motor
Mass
960 kg wet, ~910 kg dry
Launch date (UTC)
2025-04-13 (1 year ago)
Launch vehicle
FALCON 9
Launch site
Air Force Eastern Test Range (AFETR)
Object type
Payload
Rocket body
Debris
Shape & HBR
Box + 2 Pan, 18.1 m
Radar Cross Section
36.964 m², Large (>1 m²)

Expand to show TLE details & history
Last TLE update: 1 day ago

TLE from 1 day ago
0 STARLINK-11667
1 63550U 25075C   26170.59890406  .00149346  00000-0  11437-2 0  9990
2 63550  43.0010 259.7662 0002297 269.6083  90.4522 15.70899345 69277
Epoch: 2026-06-19T14:22Z
TLE epoch observation values (Epoch: 2026-06-19T14:22:25.310Z)
Latitude
Longitude
136.33517°
Altitude
356.109 km
Speed
7.697 km/s
True Right ascension
17h 19m 03s
True Declination
0° 00' 00"
Sunlit
Object was in full shadow at epoch
Visualization orbit readout
Latitude
Unknown
Longitude
Unknown
Altitude
Unknown
Speed
Unknown
Apparent Right ascension
Unknown
Apparent Declination
Unknown
Sunlit
N/A
Visualization observer readout
Local Sidereal Time
07:21:13
Azimuth
Unknown
Elevation
Unknown
Doppler factor
Unknown
Orbital elements
Apogee altitude
359.854 km
Perigee altitude
356.76 km
Semi-major axis
6,736.444 km
Eccentricity
0.00023
Inclination
43.001°
RAAN
259.7662°
Arg. of periapsis
269.6083°
True anomaly
90.47852°
Mean anomaly
90.4522°
Eccentric anomaly
90.46536°
Mean motion
3.92552 °/min
Orbital period
91.71 mins
BSTAR
0.0011437
Loading maneuver chart data...
Computing Atmospheric mass density...
Loading historical data...
Loading historical data...
Loading historical data...
Loading historical data...
Loading historical data...
Loading historical data...
Loading historical data...

Documentation

Showing up to 5 results
|